Ithaca, NY

8:12 AM EDT on August 23, 2017 (GMT -0400)
Tompkins County

Weather History for KITH - October, 2011

Change the Weather History Date:

Sunday, October 23, 2011

  Actual Average Record
Temperature  
Mean Temperature 46 °F -  
Max Temperature 55 °F 56 °F 82 °F (1979)
Min Temperature 36 °F 37 °F 23 °F (1944)
Degree Days  
Heating Degree Days 20    
Moisture  
Dew Point 37 °F    
Average Humidity 74    
Maximum Humidity 100    
Minimum Humidity 44    
Precipitation  
Precipitation 0.00 in - - ()
Sea Level Pressure  
Sea Level Pressure 30.11 in    
Wind  
Wind Speed 2 mph (SSE)    
Max Wind Speed 8 mph    
Max Gust Speed -    
Visibility 10 miles    
Events      
Averages and records for this station are not official NWS values.
T = Trace of Precipitation, MM = Missing Value Source: NWS Daily Summary

Daily Weather History Graph

Daily Weather History Graph

Search for Another Location

Airport or City:

Trip Planner

Search our weather history database for the weather conditions in past years. The results will help you decide how hot, cold, wet, or windy it might be!

Date:

Astronomy

Oct. 23, 2011 Rise Set
Actual Time 7:27 AM EDT 6:11 PM EDT
Civil Twilight 6:59 AM EDT 6:40 PM EDT
Nautical Twilight 6:26 AM EDT 7:13 PM EDT
Astronomical Twilight 5:53 AM EDT 7:45 PM EDT
Moon 3:28 AM EDT 4:04 PM EDT
Length of Visible Light 11h 41m
Length of Day
10h 43m
Waning Crescent, 14% of the Moon is Illuminated
Oct 23
Waning Crescent
Oct 26
New
Nov 2
First Quarter
Nov 10
Full
Nov 18
Last Quarter

Hourly Weather History & Observations

Time (EDT) Temp. Windchill Dew Point Humidity Pressure Visibility Wind Dir Wind Speed Gust Speed Precip Events Conditions
12:56 AM 45.0 °F - 39.9 °F 82% 30.11 in 10.0 mi Calm Calm - N/A   Overcast
2:56 AM 43.9 °F - 41.0 °F 90% 30.11 in 10.0 mi Calm Calm - N/A   Overcast
3:56 AM 43.0 °F - 39.9 °F 89% 30.10 in 10.0 mi Calm Calm - N/A   Overcast
4:56 AM 41.9 °F 39.0 °F 38.8 °F 89% 30.11 in 10.0 mi South 4.6 mph - N/A   Overcast
5:56 AM 39.9 °F 37.8 °F 37.9 °F 93% 30.11 in 10.0 mi SSW 3.5 mph - N/A   Overcast
6:21 AM 39.2 °F 37.0 °F 37.4 °F 93% 30.08 in 10.0 mi SW 3.5 mph - N/A   Mostly Cloudy
6:56 AM 36.9 °F - 36.0 °F 97% 30.11 in 10.0 mi Calm Calm - N/A   Partly Cloudy
7:56 AM 36.0 °F - 36.0 °F 100% 30.13 in 10.0 mi Calm Calm - N/A   Partly Cloudy
8:56 AM 38.8 °F 36.5 °F 36.0 °F 89% 30.16 in 10.0 mi South 3.5 mph - N/A   Partly Cloudy
9:31 AM 44.6 °F - 37.4 °F 76% 30.13 in 10.0 mi Calm Calm - N/A   Clear
9:56 AM 45.9 °F 43.6 °F 38.8 °F 76% 30.15 in 10.0 mi South 4.6 mph - N/A   Partly Cloudy
10:56 AM 50.9 °F - 38.8 °F 63% 30.14 in 10.0 mi WSW 4.6 mph - N/A   Scattered Clouds
11:23 AM 51.8 °F - 37.4 °F 58% 30.13 in 10.0 mi Variable 5.8 mph - N/A   Mostly Cloudy
11:56 AM 52.0 °F - 36.9 °F 56% 30.14 in 10.0 mi West 8.1 mph - N/A   Mostly Cloudy
12:56 PM 54.0 °F - 36.9 °F 52% 30.12 in 10.0 mi West 8.1 mph - N/A   Mostly Cloudy
1:56 PM 54.9 °F - 36.0 °F 49% 30.09 in 10.0 mi SW 3.5 mph - N/A   Scattered Clouds
2:56 PM 55.9 °F - 34.9 °F 45% 30.09 in 10.0 mi Variable 3.5 mph - N/A   Scattered Clouds
3:56 PM 55.9 °F - 36.0 °F 47% 30.08 in 10.0 mi SSE 3.5 mph - N/A   Partly Cloudy
4:56 PM 55.9 °F - 34.0 °F 44% 30.07 in 10.0 mi Calm Calm - N/A   Clear
5:56 PM 50.9 °F - 38.8 °F 63% 30.08 in 10.0 mi Calm Calm - N/A   Clear
6:56 PM 45.0 °F 42.6 °F 37.9 °F 76% 30.10 in 10.0 mi ENE 4.6 mph - N/A   Clear
7:56 PM 43.9 °F 41.3 °F 36.9 °F 76% 30.10 in 10.0 mi East 4.6 mph - N/A   Clear
8:56 PM 43.9 °F 41.3 °F 36.9 °F 76% 30.10 in 9.0 mi East 4.6 mph - N/A   Clear
9:56 PM 43.0 °F 39.5 °F 36.9 °F 79% 30.10 in 9.0 mi East 5.8 mph - N/A   Clear
10:56 PM 43.0 °F 41.3 °F 36.9 °F 79% 30.10 in 9.0 mi ESE 3.5 mph - N/A   Clear
11:10 PM 44.6 °F 43.1 °F 37.4 °F 76% 30.08 in 2.0 mi SE 3.5 mph - N/A   Haze
11:18 PM 44.6 °F 43.1 °F 37.4 °F 76% 30.08 in 7.0 mi SE 3.5 mph - N/A   Clear
11:56 PM 43.9 °F 40.5 °F 37.9 °F 80% 30.09 in 10.0 mi SE 5.8 mph - N/A   Clear